[[[{"header":{"parameterUnit":"kt","parameterCategory":2,"dx":1,"dy":1,"la1":30.253999710083008,"la2":30.299108505249023,"lo1":-89.0895004272461,"lo2":-89.04439544677734,"nx":28,"ny":28,"refTime":"2022-10-14T21:00:00:Z","depth":"0","parameterNumber":2,"parameterNumberName":"U-component_of_CURRENTS"},"data":[-0.2784,-0.277,-0.2713,-0.2765,-0.2761,-0.2779,-0.2798,-0.2831,-0.2892,-0.3031,-0.3103,-0.3181,-0.3028,-0.3069,-0.2767,-0.2587,-0.2386,-0.2396,-0.2306,-0.2287,-0.2289,-0.2292,-0.2249,-0.2266,-0.2266,-0.2042,-0.2041,-0.2039,-0.2711,-0.2655,-0.2653,-0.2643,-0.2689,-0.266,-0.2748,-0.2767,-0.2906,-0.3079,-0.3236,-0.3313,-0.3281,-0.3152,-0.2989,-0.2853,-0.2702,-0.2621,-0.2483,-0.24,-0.2554,-0.2524,-0.26,-0.26,-0.26,-0.26,-0.26,-0.26,-0.2563,-0.2563,-0.2507,-0.251,-0.2539,-0.2601,-0.2633,-0.2733,-0.2868,-0.3038,-0.315,-0.327,-0.3281,-0.3273,-0.3204,-0.2933,-0.293,-0.2718,-0.2718,-0.2718,-0.2622,-0.2844,-0.2988,-0.2988,-0.2989,-0.2989,-0.2989,0,-0.2432,-0.2388,-0.2382,-0.2367,-0.2396,-0.244,-0.2505,-0.2587,-0.2671,-0.279,-0.2976,-0.3079,-0.3172,-0.3184,-0.3139,-0.3031,-0.2704,-0.2799,-0.2651,-0.2486,-0.2484,-0.2374,-0.2505,-0.2649,-0.2647,-0.2646,-0.2645,-0.2645,-0.2274,-0.2278,-0.2231,-0.2241,-0.2234,-0.2281,-0.2334,-0.2374,-0.2467,-0.2629,-0.2717,-0.2816,-0.2929,-0.2955,-0.2901,-0.2863,-0.2658,-0.2759,-0.2664,-0.2541,-0.2508,-0.249,-0.2403,-0.2629,-0.2631,-0.2633,-0.2634,0,-0.2189,-0.2128,-0.2154,-0.213,-0.2133,-0.2185,-0.2242,-0.2329,-0.2389,-0.2534,-0.2566,-0.2647,-0.27,-0.2649,-0.2617,-0.258,-0.2536,-0.257,-0.2526,-0.2511,-0.2481,-0.2463,-0.2594,-0.2511,-0.2704,-0.2708,-0.2711,0,-0.2045,-0.2084,-0.2006,-0.2023,-0.209,-0.2076,-0.2182,-0.2225,-0.2308,-0.2423,-0.2421,-0.2518,-0.2452,-0.2483,-0.24,-0.244,-0.2408,-0.2397,-0.2386,-0.2321,-0.2323,-0.2193,-0.2165,-0.2288,-0.2287,-0.2287,-0.2286,0,-0.1927,-0.1948,-0.1967,-0.1971,-0.198,-0.2019,-0.2046,-0.2131,-0.2198,-0.2282,-0.2344,-0.2379,-0.241,-0.2371,-0.2324,-0.2269,-0.2346,-0.2257,-0.2326,-0.2331,-0.2284,-0.2284,-0.2289,-0.2285,-0.2285,-0.2284,-0.2284,0,-0.1822,-0.1823,-0.1864,-0.1876,-0.1898,-0.1934,-0.2029,-0.2072,-0.2157,-0.2182,-0.2227,-0.2229,-0.2276,-0.2184,-0.2214,-0.2175,-0.214,-0.2116,-0.2118,-0.2189,-0.2116,-0.2163,-0.2291,-0.2153,-0.211,-0.2109,-0.2108,0,-0.168,-0.173,-0.1731,-0.1793,-0.1821,-0.1823,-0.1878,-0.193,-0.1965,-0.2035,-0.2034,-0.2084,-0.2019,-0.2033,-0.2038,-0.2026,-0.205,-0.1994,-0.1991,-0.1992,-0.2079,-0.221,-0.2161,-0.2262,-0.2088,-0.209,-0.2091,0,-0.1598,-0.1595,-0.1618,-0.1625,-0.1665,-0.1708,-0.1755,-0.1827,-0.1887,-0.1886,-0.1965,-0.1964,-0.1961,-0.1959,-0.1936,-0.1946,-0.2016,-0.1886,-0.1884,-0.1936,-0.207,-0.2168,-0.2191,-0.1965,-0.1967,-0.1969,-0.2076,0,-0.1427,-0.1485,-0.1522,-0.1594,-0.1622,-0.1669,-0.1698,-0.1724,-0.1727,-0.1759,-0.1806,-0.179,-0.1813,-0.1798,-0.1777,-0.1838,-0.1819,-0.1767,-0.1728,-0.1793,-0.1829,-0.1842,-0.1663,-0.1661,-0.166,-0.1658,0,0,-0.1324,-0.1427,-0.1468,-0.1513,-0.1545,-0.1552,-0.1602,-0.1625,-0.1666,-0.1698,-0.1661,-0.1689,-0.1659,-0.1716,-0.174,-0.1706,-0.1709,-0.1683,-0.1751,-0.1762,-0.1772,-0.181,-0.1824,-0.1656,-0.1655,-0.1655,-0.1654,0,-0.1302,-0.1372,-0.1445,-0.1471,-0.1522,-0.1548,-0.1556,-0.1605,-0.1625,-0.1645,-0.1644,-0.1656,-0.1618,-0.1643,-0.1638,-0.1682,-0.164,-0.1652,-0.1722,-0.1737,-0.175,-0.1761,-0.1801,-0.1815,-0.165,-0.1651,-0.1651,0,-0.1236,-0.1304,-0.1358,-0.1458,-0.1491,-0.1534,-0.1534,-0.158,-0.1615,-0.1577,-0.1608,-0.1594,-0.1571,-0.1585,-0.1578,-0.1552,-0.1586,-0.1544,-0.1551,-0.1572,-0.1586,-0.16,-0.1613,-0.1451,-0.145,-0.145,0,0,-0.1212,-0.1299,-0.1372,-0.1462,-0.148,-0.1518,-0.1543,-0.1564,-0.159,-0.1596,-0.1583,-0.1567,-0.1564,-0.155,-0.1539,-0.1526,-0.1526,-0.1523,-0.1532,-0.154,-0.1565,-0.1581,-0.1595,-0.1449,-0.1449,-0.1449,0,0,-0.1203,-0.132,-0.1338,-0.1452,-0.1492,-0.1553,-0.1579,-0.1586,-0.1599,-0.1594,-0.1569,-0.1562,-0.1564,-0.1526,-0.1517,-0.1517,-0.1474,-0.1475,-0.1548,-0.1559,-0.1568,-0.1608,-0.1471,0,0,0,0,0,-0.123,-0.1306,-0.1322,-0.135,-0.1482,-0.1545,-0.1554,-0.159,-0.1583,-0.1599,-0.1597,-0.1553,-0.1534,-0.1526,-0.1512,-0.1521,-0.1432,-0.1435,-0.1438,-0.153,-0.1542,-0.1552,0,0,0,0,0,0,-0.1241,-0.1278,-0.1319,-0.1392,-0.1421,-0.1543,-0.1549,-0.1558,-0.1583,-0.1586,-0.156,-0.1552,-0.1538,-0.1527,-0.1517,-0.1527,-0.1474,-0.1434,-0.1436,-0.1438,-0.1534,-0.1544,-0.1552,0,0,0,0,0,-0.125,-0.1279,-0.15,-0.1388,-0.1414,-0.1474,-0.1548,-0.1556,-0.157,-0.1557,-0.1553,-0.1598,-0.1538,-0.1527,-0.1521,-0.1533,-0.1481,-0.1478,-0.1435,-0.1437,-0.1439,-0.1539,0,0,0,0,0,0,-0.1257,-0.1264,-0.1504,-0.151,-0.1388,-0.1466,-0.1487,-0.1554,-0.1538,-0.1539,-0.1592,-0.1594,-0.1539,-0.153,-0.1522,-0.1539,-0.1487,-0.1483,-0.1481,-0.1437,-0.1438,-0.1439,0,0,0,0,0,0,-0.1249,-0.127,-0.1506,-0.1504,-0.151,-0.146,-0.1478,-0.1439,-0.1533,-0.157,-0.1574,-0.1592,-0.1519,-0.1532,-0.1525,-0.1464,-0.1491,-0.1488,-0.1485,-0.1484,-0.1438,-0.1439,0,0,0,0,0,0,-0.1257,-0.1275,-0.1502,-0.1507,-0.1512,-0.158,-0.1418,-0.153,-0.1607,-0.1567,-0.1608,-0.1608,-0.1518,-0.1514,-0.1528,-0.147,-0.1466,-0.1491,-0.1489,-0.1487,-0.1486,0,0,0,0,0,0,0,-0.1264,-0.1152,-0.1473,-0.1509,-0.1514,-0.1568,-0.157,-0.1571,-0.1607,-0.1607,-0.1608,-0.1608,-0.1512,-0.1508,-0.1504,-0.1474,0,0,-0.1492,-0.149,0,0,0,0,0,0,0,0,-0.1144,-0.115,-0.1473,-0.1475,-0.1477,-0.1569,-0.157,-0.157,-0.1607,-0.1607,-0.1608,-0.1608,-0.1511,-0.1508,-0.1505,0,0,0,0,0,0,0,0,0,0,0,0,0,0,0,-0.1473,-0.1475,0,-0.1569,-0.157,-0.157,-0.1607,-0.1607,-0.1607,-0.1608,-0.151,-0.1507,-0.1505,0,0,0,0,0,0,0,0,0,0,0,0,0,0,0,0,0,0,0,0,0,0,0,0,0,0,0,0,0,0,0,0,0,0,0,0,0,0,0,0,0,0,0,0,0,0,0,0,0,0,0,0,0,0,0,0,0,0,0,0,0,0,0,0,0,0,0,0,0]}],[{"header":{"parameterUnit":"kt","parameterCategory":2,"dx":1,"dy":1,"la1":30.253999710083008,"la2":30.299108505249023,"lo1":-89.0895004272461,"lo2":-89.04439544677734,"nx":28,"ny":28,"refTime":"2022-10-14T21:00:00:Z","depth":"0","parameterNumber":3,"parameterNumberName":"V-component_of_CURRENTS"},"data":[-0.1426,-0.1552,-0.1627,-0.1825,-0.1902,-0.2026,-0.2072,-0.2139,-0.2094,-0.1946,-0.1646,-0.1384,-0.0283,0.1093,0.1916,0.1959,0.2297,0.2177,0.2358,0.2092,0.2058,0.2027,0.2059,0.2352,0.2353,0.2954,0.2959,0.2964,-0.1403,-0.1494,-0.1581,-0.1686,-0.1781,-0.1754,-0.1779,-0.1824,-0.1868,-0.1747,-0.1666,-0.1062,-0.0498,0.0163,0.0992,0.1286,0.1421,0.1443,0.1678,0.1752,0.1196,0.1194,0.1307,0.1307,0.1307,0.1306,0.1306,0.1306,-0.1364,-0.1423,-0.1506,-0.1574,-0.1612,-0.1652,-0.1676,-0.1631,-0.1599,-0.1511,-0.1307,-0.1143,-0.0512,-0.0035,0.0199,0.0777,0.0727,0.0958,0.1043,0.1118,0.1224,0.0496,0.0542,0.0542,0.0542,0.0541,0.0541,0,-0.133,-0.1366,-0.1399,-0.148,-0.1489,-0.1483,-0.1429,-0.1423,-0.124,-0.1158,-0.1022,-0.0888,-0.0507,-0.0187,0.0138,0.0297,0.0784,0.058,0.0901,0.1095,0.1158,0.1289,0.0638,0.0694,0.0695,0.0695,0.0696,0.0696,-0.127,-0.1317,-0.1344,-0.137,-0.1351,-0.1316,-0.1283,-0.1129,-0.1083,-0.0845,-0.08,-0.0559,-0.0412,-0.0071,0.0211,0.0446,0.0673,0.0593,0.0636,0.0884,0.1005,0.1096,0.1186,0.0702,0.0701,0.0701,0.07,0,-0.1244,-0.1243,-0.1275,-0.1231,-0.1212,-0.1199,-0.1077,-0.1038,-0.0874,-0.076,-0.0689,-0.0402,-0.0203,0.0048,0.0312,0.0433,0.0726,0.0622,0.059,0.0614,0.088,0.0963,0.1206,0.1324,0.0655,0.0653,0.0652,0,-0.1166,-0.1179,-0.1152,-0.1164,-0.116,-0.1036,-0.0986,-0.0872,-0.0708,-0.0628,-0.0394,-0.0286,0.0026,0.0183,0.0335,0.0485,0.0541,0.0602,0.0634,0.0654,0.0647,0.0964,0.106,0.0733,0.0732,0.0732,0.0731,0,-0.1081,-0.1061,-0.109,-0.107,-0.0968,-0.093,-0.085,-0.068,-0.0609,-0.0409,-0.0333,-0.0108,0.0023,0.0178,0.0364,0.0381,0.0562,0.0624,0.0623,0.0618,0.0706,0.0704,0.0989,0.0731,0.0731,0.073,0.073,0,-0.0973,-0.0973,-0.1,-0.0917,-0.0896,-0.0857,-0.0718,-0.0646,-0.045,-0.0358,-0.02,-0.0047,0.0123,0.017,0.0387,0.0348,0.0433,0.0526,0.0532,0.0515,0.055,0.0612,0.0597,0.0893,0.0595,0.0594,0.0593,0,-0.0913,-0.0929,-0.084,-0.0829,-0.082,-0.0677,-0.061,-0.0487,-0.0378,-0.0264,-0.0081,0.005,0.0127,0.0203,0.0275,0.0436,0.0469,0.0421,0.0608,0.0613,0.0529,0.0501,0.0524,0.058,0.0578,0.058,0.0581,0,-0.0834,-0.0757,-0.0752,-0.0731,-0.061,-0.0573,-0.0499,-0.0388,-0.0334,-0.0207,-0.0114,0.0063,0.0149,0.0243,0.0358,0.0418,0.0447,0.0463,0.047,0.047,0.0571,0.049,0.0492,0.0497,0.0499,0.05,0.0569,0,-0.0735,-0.0697,-0.0701,-0.0604,-0.0553,-0.0541,-0.0411,-0.0356,-0.0268,-0.0175,-0.0038,0.012,0.0272,0.0308,0.0393,0.047,0.0482,0.0534,0.0567,0.0548,0.0579,0.0587,0.0522,0.0525,0.0526,0.0528,0,0,-0.0677,-0.0621,-0.0508,-0.0492,-0.0454,-0.033,-0.0323,-0.0249,-0.012,-0.0065,-0.0031,0.0217,0.0321,0.0464,0.0468,0.0516,0.055,0.0509,0.0553,0.0555,0.0558,0.0586,0.0592,0.0531,0.0532,0.0533,0.0533,0,-0.0613,-0.0521,-0.0505,-0.0454,-0.0369,-0.029,-0.0288,-0.018,-0.0121,-0.0037,0.0096,0.02,0.0339,0.0454,0.053,0.0534,0.0597,0.0549,0.0491,0.0566,0.0565,0.0566,0.0593,0.0596,0.0538,0.0538,0.0537,0,-0.0536,-0.045,-0.0417,-0.0311,-0.025,-0.0216,-0.013,-0.0095,-0.0052,0.0097,0.0173,0.0281,0.0428,0.0508,0.0549,0.0565,0.0636,0.0618,0.0611,0.062,0.0701,0.07,0.0699,0.0712,0.0712,0.0712,0,0,-0.0493,-0.0437,-0.0316,-0.0287,-0.0259,-0.0153,-0.0123,-0.0058,0.0042,0.0083,0.0187,0.0305,0.0416,0.0468,0.0568,0.0622,0.0676,0.0633,0.0625,0.0618,0.0622,0.0701,0.07,0.0712,0.0712,0.0712,0,0,-0.0475,-0.0324,-0.0262,-0.0217,-0.0153,-0.004,-0.0039,0.0025,0.0117,0.0138,0.0277,0.0312,0.0399,0.0468,0.0453,0.0566,0.0608,0.0613,0.0505,0.0496,0.0488,0.047,0.0535,0,0,0,0,0,-0.0343,-0.0343,-0.0288,-0.0264,-0.0117,-0.0063,-0.0047,0.0044,0.0088,0.0085,0.0211,0.0267,0.0497,0.0487,0.0513,0.0506,0.0709,0.071,0.071,0.0586,0.0575,0.0567,0,0,0,0,0,0,-0.0333,-0.0303,-0.0288,-0.0173,-0.014,-0.0061,0.0028,0.0052,0.009,0.0103,0.0244,0.0271,0.0367,0.048,0.0501,0.0493,0.0528,0.0709,0.071,0.071,0.0582,0.0574,0.0567,0,0,0,0,0,-0.0325,-0.03,-0.0082,-0.0173,-0.0144,-0.0027,0.0029,0.005,0.0084,0.0226,0.0253,0.0148,0.0363,0.0391,0.0493,0.048,0.0514,0.0522,0.071,0.071,0.071,0.0578,0,0,0,0,0,0,-0.0318,-0.0283,-0.0075,-0.0064,-0.0162,-0.003,-0.0003,0.0048,0.0207,0.0233,0.0137,0.0145,0.0361,0.0382,0.0403,0.047,0.0502,0.051,0.0515,0.071,0.071,0.071,0,0,0,0,0,0,-0.0296,-0.0274,-0.0069,-0.0059,-0.0046,-0.0034,-0.001,0.0066,0.021,0.0111,0.0122,0.0139,0.0344,0.0376,0.0393,0.0506,0.0493,0.0501,0.0506,0.0509,0.071,0.071,0,0,0,0,0,0,-0.0285,-0.0267,-0.0061,-0.0052,-0.004,0.0091,0.0036,0.0192,0.0186,0.0104,0.0191,0.0193,0.0337,0.0355,0.0385,0.049,0.0502,0.0493,0.0498,0.0502,0.0504,0,0,0,0,0,0,0,-0.0277,-0.0417,-0.0142,-0.0045,-0.0035,0.0036,0.004,0.0043,0.0186,0.0188,0.019,0.0192,0.0449,0.0458,0.0466,0.0478,0,0,0.0492,0.0496,0,0,0,0,0,0,0,0,-0.0423,-0.0418,-0.0141,-0.0139,-0.0137,0.0037,0.004,0.0042,0.0187,0.0188,0.019,0.0191,0.0452,0.0458,0.0465,0,0,0,0,0,0,0,0,0,0,0,0,0,0,0,-0.0141,-0.0139,0,0.0037,0.004,0.0042,0.0187,0.0188,0.019,0.0191,0.0453,0.0459,0.0465,0,0,0,0,0,0,0,0,0,0,0,0,0,0,0,0,0,0,0,0,0,0,0,0,0,0,0,0,0,0,0,0,0,0,0,0,0,0,0,0,0,0,0,0,0,0,0,0,0,0,0,0,0,0,0,0,0,0,0,0,0,0,0,0,0,0,0,0,0]}]],[[{"header":{"parameterUnit":"kt","parameterCategory":2,"dx":1,"dy":1,"la1":30.253999710083008,"la2":30.299108505249023,"lo1":-89.0895004272461,"lo2":-89.04439544677734,"nx":28,"ny":28,"refTime":"2022-10-14T21:00:00:Z","depth":"2","parameterNumber":2,"parameterNumberName":"U-component_of_CURRENTS"},"data":[-0.1481,-0.1376,-0.126,-0.1281,-0.1285,-0.1362,-0.1444,-0.1588,-0.1726,-0.1917,-0.2002,-0.2199,-0.2081,-0.1754,-0.1581,-0.1467,-0.1333,-0.1359,-0.177,-0.1426,-0.1422,-0.1291,-0.1248,0,0,0,0,0,-0.1397,-0.1265,-0.1236,-0.1207,-0.1234,-0.1233,-0.1373,-0.1466,-0.1755,-0.1942,-0.2234,-0.2058,-0.213,-0.1938,-0.1759,-0.1727,-0.1526,-0.1545,-0.1243,-0.1241,-0.1238,-0.1207,-0.1267,-0.1266,-0.1265,-0.1264,0,0,-0.1211,-0.1182,-0.1098,-0.1105,-0.1136,-0.1206,-0.1286,-0.1428,-0.1628,-0.1857,-0.2045,-0.2263,-0.2092,-0.2111,-0.199,-0.18,-0.188,-0.164,-0.1624,-0.1611,-0.1613,-0.1643,-0.1774,-0.1776,-0.1778,-0.1779,-0.1781,0,-0.1071,-0.0992,-0.1004,-0.1001,-0.1038,-0.1105,-0.1186,-0.126,-0.1372,-0.1545,-0.1807,-0.1987,-0.2091,-0.2082,-0.2058,-0.1952,-0.158,-0.1614,-0.1684,-0.1197,-0.121,-0.1203,-0.1195,-0.1261,-0.126,-0.1259,-0.1259,-0.1259,-0.0875,-0.0895,-0.0892,-0.0915,-0.095,-0.1017,-0.1075,-0.1135,-0.1207,-0.1397,-0.147,-0.1603,-0.1788,-0.1865,-0.1785,-0.1771,-0.1635,-0.1582,-0.1465,-0.1531,-0.1529,-0.1514,-0.15,-0.1252,-0.1253,-0.1253,-0.1254,0,-0.0748,-0.0759,-0.0849,-0.09,-0.0921,-0.0974,-0.1066,-0.1124,-0.118,-0.13,-0.1324,-0.141,-0.1499,-0.1452,-0.1426,-0.1405,-0.1414,-0.144,-0.1271,-0.1271,-0.1467,-0.1461,-0.1617,-0.1624,-0.163,-0.1636,-0.164,0,-0.0644,-0.0732,-0.0759,-0.0812,-0.0891,-0.0953,-0.1031,-0.1076,-0.1142,-0.1229,-0.1214,-0.1305,-0.1228,-0.1262,-0.1193,-0.1273,-0.1197,-0.1253,-0.127,-0.1086,-0.1088,-0.1026,-0.1022,-0.1058,-0.1057,-0.1056,-0.1056,0,-0.0552,-0.0684,-0.0752,-0.0796,-0.0911,-0.0944,-0.0991,-0.1052,-0.1097,-0.114,-0.1186,-0.1177,-0.1202,-0.1154,-0.1134,-0.1083,-0.1145,-0.107,-0.121,-0.1223,-0.1081,-0.1083,-0.1055,-0.1055,-0.1055,-0.1054,-0.1054,0,-0.0525,-0.0596,-0.07,-0.0814,-0.085,-0.0907,-0.0991,-0.104,-0.1084,-0.1098,-0.1102,-0.1098,-0.11,-0.1041,-0.1038,-0.1023,-0.0996,-0.0979,-0.0982,-0.1156,-0.115,-0.1075,-0.1097,-0.1016,-0.1015,-0.1014,-0.1013,0,-0.0407,-0.0543,-0.0617,-0.073,-0.0812,-0.0856,-0.0911,-0.0959,-0.0982,-0.1025,-0.0995,-0.1021,-0.0967,-0.0971,-0.0953,-0.0948,-0.0946,-0.0914,-0.0953,-0.0955,-0.1136,-0.1188,-0.1005,-0.1084,-0.1004,-0.1005,-0.1006,0,-0.0354,-0.0504,-0.0525,-0.0582,-0.0701,-0.0762,-0.0812,-0.0888,-0.0917,-0.0931,-0.0972,-0.0953,-0.0936,-0.0941,-0.0925,-0.0917,-0.0934,-0.0901,-0.0901,-0.096,-0.0969,-0.1152,-0.1176,-0.0909,-0.091,-0.091,-0.0999,0,-0.0366,-0.0439,-0.0478,-0.0612,-0.0664,-0.0728,-0.08,-0.0824,-0.0833,-0.0867,-0.0877,-0.0877,-0.0897,-0.0878,-0.0878,-0.0884,-0.0897,-0.0873,-0.0894,-0.0883,-0.0922,-0.0928,-0.0858,-0.0858,-0.0858,-0.0858,0,0,-0.0284,-0.0404,-0.0473,-0.0559,-0.0611,-0.0652,-0.0724,-0.0757,-0.0831,-0.0841,-0.0828,-0.0857,-0.0855,-0.0881,-0.0871,-0.0866,-0.0882,-0.089,-0.0876,-0.0878,-0.088,-0.0917,-0.0923,-0.0858,-0.0858,-0.0858,-0.0858,0,-0.034,-0.0384,-0.0453,-0.0518,-0.0609,-0.0666,-0.0674,-0.0767,-0.0781,-0.0823,-0.0823,-0.0817,-0.0854,-0.0867,-0.0876,-0.0865,-0.0891,-0.0854,-0.0873,-0.0875,-0.0877,-0.0879,-0.0916,-0.0921,-0.0857,-0.0857,-0.0857,0,-0.034,-0.0427,-0.0457,-0.0574,-0.0623,-0.0698,-0.071,-0.0761,-0.0803,-0.0812,-0.0848,-0.0845,-0.0859,-0.0878,-0.088,-0.0885,-0.0906,-0.0889,-0.0889,-0.0906,-0.0909,-0.091,-0.0912,-0.0899,-0.0899,-0.09,0,0,-0.0377,-0.0444,-0.0553,-0.0591,-0.0626,-0.0695,-0.0725,-0.0759,-0.0805,-0.0813,-0.084,-0.0848,-0.086,-0.0869,-0.0886,-0.0902,-0.0918,-0.0897,-0.0895,-0.0893,-0.0909,-0.0911,-0.0912,-0.0901,-0.0901,-0.0901,0,0,-0.0392,-0.0532,-0.0546,-0.0609,-0.0674,-0.0776,-0.0789,-0.0811,-0.0833,-0.0816,-0.0849,-0.0856,-0.0861,-0.087,-0.0884,-0.0891,-0.0894,-0.0893,-0.0905,-0.0903,-0.09,-0.092,-0.0911,0,0,0,0,0,-0.0492,-0.0523,-0.0534,-0.0555,-0.0679,-0.0771,-0.0785,-0.0826,-0.081,-0.0823,-0.0834,-0.0848,-0.088,-0.0895,-0.0903,-0.0904,-0.0918,-0.0915,-0.0912,-0.093,-0.0927,-0.0925,0,0,0,0,0,0,-0.0502,-0.053,-0.0533,-0.0638,-0.0666,-0.077,-0.0779,-0.0791,-0.081,-0.0811,-0.0846,-0.085,-0.088,-0.0893,-0.0899,-0.09,-0.0909,-0.0917,-0.0914,-0.0912,-0.0929,-0.0927,-0.0925,0,0,0,0,0,-0.051,-0.0532,-0.072,-0.0637,-0.0662,-0.073,-0.0777,-0.0787,-0.0793,-0.085,-0.0854,-0.0819,-0.088,-0.0886,-0.0897,-0.0896,-0.0905,-0.0907,-0.0915,-0.0913,-0.0911,-0.0928,0,0,0,0,0,0,-0.0515,-0.0535,-0.0725,-0.0734,-0.0624,-0.0724,-0.0741,-0.0784,-0.083,-0.0837,-0.0826,-0.0827,-0.0881,-0.0885,-0.089,-0.0893,-0.0901,-0.0904,-0.0905,-0.0914,-0.0912,-0.0911,0,0,0,0,0,0,-0.0523,-0.0542,-0.073,-0.071,-0.0717,-0.0718,-0.0734,-0.0762,-0.0827,-0.0802,-0.0805,-0.0826,-0.0858,-0.0885,-0.0888,-0.0933,-0.0899,-0.0901,-0.0902,-0.0904,-0.0913,-0.0911,0,0,0,0,0,0,-0.0532,-0.0547,-0.0708,-0.0713,-0.0718,-0.0817,-0.0741,-0.0852,-0.085,-0.0797,-0.0847,-0.0846,-0.0857,-0.0862,-0.0888,-0.093,-0.0932,-0.0899,-0.09,-0.0901,-0.0902,0,0,0,0,0,0,0,-0.0538,-0.0424,-0.0677,-0.0715,-0.072,-0.0815,-0.0817,-0.0819,-0.085,-0.0849,-0.0848,-0.0846,-0.0885,-0.0888,-0.0891,-0.0928,0,0,-0.0898,-0.09,0,0,0,0,0,0,0,0,-0.0418,-0.0423,-0.0678,-0.068,-0.0682,-0.0816,-0.0817,-0.0819,-0.085,-0.0849,-0.0848,-0.0847,-0.0886,-0.0888,-0.089,0,0,0,0,0,0,0,0,0,0,0,0,0,0,0,-0.0678,-0.0679,0,-0.0816,-0.0817,-0.0819,-0.0849,-0.0849,-0.0848,-0.0847,-0.0887,-0.0888,-0.089,0,0,0,0,0,0,0,0,0,0,0,0,0,0,0,0,0,0,0,0,0,0,0,0,0,0,0,0,0,0,0,0,0,0,0,0,0,0,0,0,0,0,0,0,0,0,0,0,0,0,0,0,0,0,0,0,0,0,0,0,0,0,0,0,0,0,0,0,0]}],[{"header":{"parameterUnit":"kt","parameterCategory":2,"dx":1,"dy":1,"la1":30.253999710083008,"la2":30.299108505249023,"lo1":-89.0895004272461,"lo2":-89.04439544677734,"nx":28,"ny":28,"refTime":"2022-10-14T21:00:00:Z","depth":"2","parameterNumber":3,"parameterNumberName":"V-component_of_CURRENTS"},"data":[-0.2126,-0.2321,-0.2462,-0.2639,-0.2743,-0.2836,-0.2837,-0.2543,-0.2295,-0.184,-0.1501,-0.0978,-0.0447,-0.013,0.0266,0.05,0.036,0.0519,0.0467,0.0076,0.0037,0.0237,0.0185,0,0,0,0,0,-0.2133,-0.2319,-0.2453,-0.2619,-0.2709,-0.2741,-0.2729,-0.2619,-0.2418,-0.2094,-0.1698,-0.1071,-0.0438,-0.0059,0.0476,0.081,0.0704,0.0741,0.0477,0.0443,0.041,0.0398,0.0759,0.0759,0.0759,0.076,0,0,-0.2194,-0.2299,-0.2465,-0.2573,-0.2648,-0.269,-0.269,-0.2591,-0.2454,-0.2181,-0.1887,-0.1394,-0.0957,-0.0076,0.0267,0.0519,0.0492,0.0426,0.04,0.0372,0.0372,0.0362,0.0719,0.0719,0.0719,0.0719,0.0719,0,-0.2244,-0.2334,-0.241,-0.2546,-0.2591,-0.2615,-0.2598,-0.2572,-0.2447,-0.2301,-0.2008,-0.1712,-0.108,-0.0551,-0.002,0.0183,-0.0022,0.0152,-0.0079,-0.0172,-0.0203,-0.0171,-0.0204,0.0051,0.0047,0.0044,0.0042,0.0041,-0.2288,-0.2337,-0.245,-0.2498,-0.2508,-0.2519,-0.2515,-0.243,-0.2386,-0.2176,-0.2121,-0.1809,-0.148,-0.0893,-0.0513,-0.0109,-0.0276,0.004,-0.0029,-0.0288,-0.0246,-0.0275,-0.0301,-0.0001,0.0004,0.0008,0.0012,0,-0.2315,-0.2355,-0.2394,-0.2419,-0.2422,-0.2435,-0.2378,-0.2355,-0.2263,-0.2172,-0.2144,-0.1894,-0.1586,-0.1335,-0.1014,-0.0831,-0.0543,-0.0408,-0.0468,-0.0401,-0.0338,-0.0354,-0.0064,-0.0054,-0.0046,-0.004,-0.0034,0,-0.2313,-0.2313,-0.2361,-0.2371,-0.2392,-0.2317,-0.2301,-0.2234,-0.2132,-0.207,-0.1951,-0.1836,-0.1626,-0.1415,-0.1254,-0.0894,-0.0968,-0.0692,-0.0617,-0.0666,-0.0652,-0.0907,-0.0915,-0.0852,-0.0854,-0.0855,-0.0856,0,-0.2288,-0.2277,-0.2317,-0.2295,-0.2243,-0.223,-0.2189,-0.2081,-0.2034,-0.1923,-0.1887,-0.1731,-0.1647,-0.1486,-0.1272,-0.132,-0.0996,-0.1023,-0.072,-0.0705,-0.0636,-0.0617,-0.0858,-0.0859,-0.0859,-0.086,-0.086,0,-0.2233,-0.2246,-0.227,-0.2225,-0.2214,-0.2181,-0.2098,-0.2041,-0.1919,-0.187,-0.1785,-0.1707,-0.159,-0.1572,-0.1341,-0.141,-0.1294,-0.1189,-0.1177,-0.094,-0.0886,-0.0738,-0.0637,-0.1039,-0.1041,-0.1043,-0.1045,0,-0.2217,-0.2233,-0.2179,-0.2163,-0.2158,-0.2064,-0.2012,-0.1931,-0.1865,-0.1801,-0.1695,-0.1629,-0.1596,-0.1578,-0.1501,-0.1365,-0.1291,-0.1388,-0.1132,-0.1124,-0.0948,-0.0866,-0.0879,-0.0682,-0.1072,-0.107,-0.1068,0,-0.2177,-0.2155,-0.2149,-0.2141,-0.2045,-0.2015,-0.1958,-0.1879,-0.1854,-0.1778,-0.1724,-0.1618,-0.1596,-0.1535,-0.1471,-0.1403,-0.133,-0.1373,-0.1366,-0.13,-0.1135,-0.093,-0.0892,-0.1295,-0.1293,-0.1291,-0.1089,0,-0.2099,-0.2102,-0.2113,-0.2054,-0.2013,-0.1999,-0.1903,-0.1877,-0.1842,-0.1774,-0.1701,-0.1606,-0.1521,-0.1496,-0.1449,-0.1382,-0.1354,-0.1324,-0.1296,-0.13,-0.121,-0.1194,-0.1364,-0.1363,-0.1361,-0.136,0,0,-0.2051,-0.2054,-0.2008,-0.1987,-0.1954,-0.189,-0.1875,-0.1819,-0.1735,-0.1707,-0.1707,-0.1554,-0.1494,-0.1392,-0.1401,-0.1363,-0.1308,-0.1378,-0.1308,-0.1303,-0.1297,-0.1213,-0.1198,-0.1358,-0.1357,-0.1357,-0.1356,0,-0.1994,-0.1994,-0.2009,-0.196,-0.1912,-0.1851,-0.1859,-0.1784,-0.1755,-0.1697,-0.1629,-0.1582,-0.1485,-0.1409,-0.1355,-0.1351,-0.1282,-0.1346,-0.1392,-0.13,-0.1296,-0.1293,-0.121,-0.1198,-0.1353,-0.1353,-0.1354,0,-0.1923,-0.1887,-0.1896,-0.1849,-0.1817,-0.1781,-0.174,-0.1727,-0.1687,-0.161,-0.1574,-0.1517,-0.1417,-0.1365,-0.1344,-0.1333,-0.1253,-0.1296,-0.1301,-0.13,-0.1202,-0.1199,-0.1197,-0.123,-0.123,-0.123,0,0,-0.1873,-0.1878,-0.1804,-0.1829,-0.1816,-0.1746,-0.1728,-0.1693,-0.1634,-0.1619,-0.1562,-0.1498,-0.1424,-0.1399,-0.1331,-0.1292,-0.1227,-0.1285,-0.1291,-0.1296,-0.1299,-0.1203,-0.12,-0.123,-0.123,-0.123,0,0,-0.1842,-0.1779,-0.1766,-0.1789,-0.1739,-0.1646,-0.1662,-0.1624,-0.158,-0.1594,-0.1507,-0.1489,-0.1448,-0.14,-0.141,-0.1334,-0.1305,-0.1301,-0.1377,-0.1383,-0.1389,-0.1408,-0.1356,0,0,0,0,0,-0.1746,-0.1782,-0.1772,-0.1767,-0.1709,-0.1651,-0.1639,-0.1599,-0.1602,-0.1606,-0.1548,-0.1516,-0.1383,-0.1389,-0.1371,-0.1377,-0.1231,-0.1231,-0.1231,-0.1318,-0.1325,-0.1331,0,0,0,0,0,0,-0.1744,-0.1739,-0.1769,-0.1685,-0.1671,-0.165,-0.1616,-0.1604,-0.1601,-0.16,-0.1525,-0.1512,-0.1448,-0.1395,-0.1379,-0.1386,-0.1361,-0.1231,-0.1231,-0.1231,-0.132,-0.1326,-0.1331,0,0,0,0,0,-0.1741,-0.1737,-0.1671,-0.1682,-0.167,-0.1615,-0.1617,-0.1607,-0.1609,-0.1515,-0.1503,-0.1589,-0.1448,-0.1433,-0.1385,-0.1395,-0.1372,-0.1366,-0.1231,-0.1231,-0.1231,-0.1323,0,0,0,0,0,0,-0.1739,-0.1709,-0.1666,-0.1658,-0.1698,-0.1616,-0.1607,-0.161,-0.1524,-0.1513,-0.1571,-0.1571,-0.1448,-0.1436,-0.1424,-0.1403,-0.1381,-0.1375,-0.1371,-0.1231,-0.1231,-0.1231,0,0,0,0,0,0,-0.1711,-0.1704,-0.1662,-0.1684,-0.1678,-0.1617,-0.161,-0.1547,-0.1523,-0.1584,-0.1582,-0.1572,-0.1471,-0.1438,-0.1428,-0.1331,-0.1387,-0.1382,-0.1378,-0.1375,-0.1231,-0.1231,0,0,0,0,0,0,-0.1706,-0.17,-0.1685,-0.1681,-0.1676,-0.1585,-0.1559,-0.1505,-0.1541,-0.1588,-0.1544,-0.1545,-0.1473,-0.1463,-0.1432,-0.1338,-0.1333,-0.1387,-0.1383,-0.138,-0.1379,0,0,0,0,0,0,0,-0.1702,-0.1769,-0.1716,-0.1679,-0.1674,-0.1589,-0.1587,-0.1584,-0.1541,-0.1542,-0.1544,-0.1545,-0.1419,-0.1413,-0.1407,-0.1344,0,0,-0.1387,-0.1385,0,0,0,0,0,0,0,0,-0.1769,-0.1769,-0.1715,-0.1714,-0.1713,-0.1589,-0.1587,-0.1585,-0.1541,-0.1542,-0.1543,-0.1544,-0.1417,-0.1412,-0.1407,0,0,0,0,0,0,0,0,0,0,0,0,0,0,0,-0.1715,-0.1714,0,-0.1588,-0.1587,-0.1585,-0.1542,-0.1542,-0.1543,-0.1544,-0.1416,-0.1412,-0.1408,0,0,0,0,0,0,0,0,0,0,0,0,0,0,0,0,0,0,0,0,0,0,0,0,0,0,0,0,0,0,0,0,0,0,0,0,0,0,0,0,0,0,0,0,0,0,0,0,0,0,0,0,0,0,0,0,0,0,0,0,0,0,0,0,0,0,0,0,0]}]],[[{"header":{"parameterUnit":"kt","parameterCategory":2,"dx":1,"dy":1,"la1":30.253999710083008,"la2":30.299108505249023,"lo1":-89.0895004272461,"lo2":-89.04439544677734,"nx":28,"ny":28,"refTime":"2022-10-14T21:00:00:Z","depth":"4","parameterNumber":2,"parameterNumberName":"U-component_of_CURRENTS"},"data":[-0.0767,-0.0837,-0.09,-0.0792,-0.0771,-0.0732,-0.0769,-0.0876,-0.0868,-0.1007,-0.1006,-0.1114,-0.112,-0.1184,-0.1134,-0.1148,-0.1434,-0.1275,-0.1272,-0.1849,-0.1888,-0.1923,-0.1962,0,0,0,0,0,-0.0834,-0.0861,-0.0929,-0.0976,-0.0968,-0.098,-0.1048,-0.1186,-0.1311,-0.1158,-0.138,-0.1208,-0.1199,-0.1234,-0.1178,-0.1293,-0.1572,-0.1225,-0.1711,-0.1873,-0.1917,-0.194,0,0,0,0,0,0,-0.0925,-0.0953,-0.108,-0.1162,-0.117,-0.1123,-0.1259,-0.1283,-0.1408,-0.165,-0.1444,-0.1556,-0.1644,-0.1623,-0.1493,-0.1511,-0.1572,-0.167,-0.1721,-0.1765,-0.1743,-0.162,-0.1111,0,0,0,0,0,-0.0972,-0.1096,-0.1183,-0.1269,-0.1342,-0.1411,-0.1534,-0.1597,-0.1815,-0.2072,-0.1962,-0.2034,-0.1863,-0.1902,-0.1868,-0.179,-0.23,-0.2084,-0.2112,-0.2337,-0.2283,-0.2185,-0.221,-0.2083,-0.2088,-0.2092,-0.2094,0,-0.111,-0.1152,-0.1366,-0.1397,-0.1489,-0.1688,-0.1746,-0.2071,-0.2126,-0.2343,-0.2322,-0.2441,-0.2539,-0.222,-0.2325,-0.2248,-0.2224,-0.2195,-0.2435,-0.2356,-0.2243,-0.2258,-0.227,-0.2129,-0.2126,-0.2124,-0.2121,0,-0.1165,-0.1273,-0.1382,-0.1574,-0.1638,-0.1752,-0.2005,-0.2102,-0.2443,-0.2563,-0.2743,-0.3018,-0.292,-0.3045,-0.295,-0.2885,-0.2711,-0.2554,-0.2894,-0.2779,-0.2334,-0.2332,-0.2187,-0.2174,-0.2163,-0.2154,-0.2147,0,-0.1252,-0.1344,-0.1537,-0.1559,-0.168,-0.1831,-0.2002,-0.2154,-0.245,-0.252,-0.2986,-0.3082,-0.3393,-0.3341,-0.3299,-0.3013,-0.3166,-0.2873,-0.2741,-0.314,-0.3134,-0.3037,-0.3019,-0.3212,-0.3214,-0.3215,-0.3217,0,-0.1282,-0.1448,-0.1519,-0.1567,-0.1708,-0.1797,-0.1907,-0.2095,-0.2205,-0.2633,-0.2806,-0.3168,-0.337,-0.3394,-0.3315,-0.3375,-0.3197,-0.3217,-0.2823,-0.2792,-0.304,-0.3019,-0.3219,-0.3219,-0.322,-0.322,-0.3221,0,-0.1338,-0.1386,-0.1488,-0.1627,-0.1679,-0.176,-0.1928,-0.2015,-0.2275,-0.2432,-0.2785,-0.2985,-0.3304,-0.3321,-0.3378,-0.3391,-0.3303,-0.323,-0.3216,-0.2835,-0.2614,-0.2774,-0.2936,-0.2935,-0.2935,-0.2934,-0.2934,0,-0.1276,-0.1379,-0.1445,-0.1569,-0.1641,-0.1717,-0.1805,-0.1906,-0.2033,-0.2248,-0.2524,-0.2799,-0.2886,-0.3117,-0.3204,-0.3164,-0.3203,-0.323,-0.2943,-0.2934,-0.2651,-0.273,-0.3153,-0.2928,-0.2929,-0.293,-0.293,0,-0.124,-0.1392,-0.1429,-0.1486,-0.1582,-0.163,-0.1722,-0.1827,-0.1948,-0.2123,-0.2346,-0.2619,-0.2798,-0.2888,-0.3023,-0.3087,-0.317,-0.3,-0.2993,-0.2926,-0.3087,-0.2757,-0.2726,-0.3135,-0.3139,-0.3142,-0.2926,0,-0.1245,-0.1329,-0.1386,-0.148,-0.1531,-0.1599,-0.1663,-0.174,-0.1836,-0.19,-0.2162,-0.2295,-0.251,-0.2587,-0.2619,-0.2859,-0.2746,-0.2683,-0.2635,-0.2768,-0.2639,-0.2643,-0.2521,-0.2516,-0.2512,-0.2509,0,0,-0.1182,-0.126,-0.1332,-0.1392,-0.1435,-0.1504,-0.1561,-0.1622,-0.1694,-0.1757,-0.1785,-0.2081,-0.2152,-0.2412,-0.2488,-0.2462,-0.2397,-0.2577,-0.2683,-0.2703,-0.2721,-0.261,-0.2618,-0.2502,-0.2501,-0.2499,-0.2498,0,-0.1169,-0.1247,-0.131,-0.1361,-0.1431,-0.1451,-0.1503,-0.1573,-0.1632,-0.1723,-0.1762,-0.1934,-0.2054,-0.2157,-0.2227,-0.2388,-0.2359,-0.2437,-0.2659,-0.2648,-0.2674,-0.2696,-0.2592,-0.2603,-0.2488,-0.2489,-0.2489,0,-0.1134,-0.1162,-0.1208,-0.127,-0.1333,-0.1387,-0.1408,-0.1488,-0.1534,-0.1551,-0.1677,-0.1755,-0.1818,-0.1965,-0.2046,-0.202,-0.2276,-0.225,-0.2268,-0.2311,-0.2295,-0.2324,-0.235,-0.2024,-0.2023,-0.2023,0,0,-0.1111,-0.1174,-0.1211,-0.1264,-0.1312,-0.137,-0.1413,-0.1436,-0.1489,-0.1536,-0.1608,-0.1684,-0.1779,-0.1868,-0.1903,-0.2062,-0.1993,-0.2204,-0.2225,-0.2244,-0.2298,-0.2287,-0.2314,-0.2021,-0.2021,-0.2021,0,0,-0.1094,-0.1154,-0.1175,-0.1236,-0.128,-0.1305,-0.1374,-0.1416,-0.1498,-0.1529,-0.158,-0.1601,-0.1757,-0.176,-0.1721,-0.1989,-0.188,-0.189,-0.2057,-0.2084,-0.2105,-0.2161,-0.1753,0,0,0,0,0,-0.1093,-0.1139,-0.1158,-0.1171,-0.1242,-0.1287,-0.1299,-0.1351,-0.1416,-0.1469,-0.1513,-0.1575,-0.172,-0.1685,-0.1713,-0.1916,-0.1995,-0.2,-0.2004,-0.225,-0.2277,-0.2301,0,0,0,0,0,0,-0.1098,-0.1113,-0.1156,-0.1177,-0.1194,-0.1285,-0.1287,-0.1302,-0.141,-0.1423,-0.1552,-0.1573,-0.1576,-0.1678,-0.1701,-0.1896,-0.1745,-0.1997,-0.2001,-0.2004,-0.2259,-0.2282,-0.2302,0,0,0,0,0,-0.1102,-0.1114,-0.1224,-0.1178,-0.1192,-0.1258,-0.1289,-0.1302,-0.142,-0.1447,-0.1472,-0.1471,-0.1573,-0.1601,-0.1692,-0.1887,-0.173,-0.1738,-0.2,-0.2003,-0.2005,-0.227,0,0,0,0,0,0,-0.1105,-0.1129,-0.1227,-0.1232,-0.1191,-0.1257,-0.1273,-0.1302,-0.1443,-0.1464,-0.1355,-0.1362,-0.157,-0.1593,-0.1614,-0.1884,-0.1717,-0.1726,-0.1731,-0.2002,-0.2004,-0.2006,0,0,0,0,0,0,-0.1122,-0.1133,-0.123,-0.1244,-0.1252,-0.1256,-0.127,-0.1351,-0.1448,-0.1347,-0.1354,-0.1357,-0.157,-0.1587,-0.1604,-0.1724,-0.1707,-0.1715,-0.1721,-0.1725,-0.2004,-0.2006,0,0,0,0,0,0,-0.1127,-0.1137,-0.1244,-0.1249,-0.1256,-0.1322,-0.1333,-0.1429,-0.1387,-0.1343,-0.1392,-0.1395,-0.1564,-0.1581,-0.1596,-0.1708,-0.172,-0.1708,-0.1713,-0.1717,-0.172,0,0,0,0,0,0,0,-0.1131,-0.1061,-0.1191,-0.1254,-0.126,-0.1279,-0.1281,-0.1283,-0.1388,-0.139,-0.1392,-0.1394,-0.1661,-0.167,-0.1679,-0.1696,0,0,-0.1707,-0.1711,0,0,0,0,0,0,0,0,-0.1058,-0.106,-0.1192,-0.1192,-0.1193,-0.1279,-0.1281,-0.1282,-0.1388,-0.139,-0.1391,-0.1393,-0.1664,-0.1671,-0.1678,0,0,0,0,0,0,0,0,0,0,0,0,0,0,0,-0.1192,-0.1192,0,-0.1279,-0.128,-0.1282,-0.1388,-0.139,-0.1391,-0.1392,-0.1666,-0.1672,-0.1678,0,0,0,0,0,0,0,0,0,0,0,0,0,0,0,0,0,0,0,0,0,0,0,0,0,0,0,0,0,0,0,0,0,0,0,0,0,0,0,0,0,0,0,0,0,0,0,0,0,0,0,0,0,0,0,0,0,0,0,0,0,0,0,0,0,0,0,0,0]}],[{"header":{"parameterUnit":"kt","parameterCategory":2,"dx":1,"dy":1,"la1":30.253999710083008,"la2":30.299108505249023,"lo1":-89.0895004272461,"lo2":-89.04439544677734,"nx":28,"ny":28,"refTime":"2022-10-14T21:00:00:Z","depth":"4","parameterNumber":3,"parameterNumberName":"V-component_of_CURRENTS"},"data":[-0.0411,-0.0513,-0.0583,-0.0738,-0.0836,-0.0964,-0.1028,-0.1068,-0.1041,-0.1057,-0.0922,-0.0871,-0.0619,-0.0795,-0.0376,-0.0324,0.0009,-0.0006,-0.0,0.0551,0.057,0.0587,0.0418,0,0,0,0,0,-0.0412,-0.0476,-0.0605,-0.0753,-0.0884,-0.0946,-0.1054,-0.11,-0.1135,-0.1096,-0.1105,-0.0949,-0.0691,-0.0598,-0.0391,-0.0368,0.0107,-0.0118,0.035,0.0563,0.0584,0.0412,0,0,0,0,0,0,-0.0431,-0.0489,-0.0588,-0.0718,-0.085,-0.0946,-0.1017,-0.1053,-0.1106,-0.1108,-0.1103,-0.0942,-0.0804,-0.052,-0.0338,-0.0119,0.0072,0.0265,0.03,0.0323,0.014,-0.0062,-0.0128,0,0,0,0,0,-0.0422,-0.0472,-0.0551,-0.0691,-0.0792,-0.0914,-0.1007,-0.1054,-0.1101,-0.1117,-0.1073,-0.0902,-0.0721,-0.0381,-0.0202,0.0099,0.0468,0.0468,0.0488,0.0667,0.0556,0.0556,0.055,0.0664,0.0667,0.0669,0.067,0,-0.0424,-0.0456,-0.0592,-0.0667,-0.0715,-0.0831,-0.0909,-0.098,-0.1026,-0.1057,-0.1031,-0.0845,-0.0692,-0.0345,-0.0042,0.0337,0.0393,0.0517,0.0706,0.0588,0.0586,0.0574,0.0561,0.0687,0.0685,0.0684,0.0682,0,-0.0423,-0.0461,-0.0545,-0.064,-0.0686,-0.076,-0.0891,-0.0961,-0.0975,-0.1,-0.0925,-0.0749,-0.0482,-0.0216,0.0202,0.0365,0.0599,0.0622,0.0616,0.062,0.0603,0.0584,0.0714,0.0708,0.0703,0.0699,0.0695,0,-0.0424,-0.0472,-0.0545,-0.0567,-0.068,-0.0705,-0.0822,-0.085,-0.088,-0.0925,-0.0737,-0.0675,-0.0226,-0.0045,0.0241,0.0466,0.058,0.0682,0.0691,0.0796,0.0777,0.0838,0.0822,0.0967,0.0966,0.0965,0.0964,0,-0.0407,-0.0467,-0.0524,-0.0537,-0.0607,-0.0657,-0.0699,-0.0755,-0.0802,-0.0729,-0.0712,-0.0471,-0.0293,0.0004,0.0292,0.0365,0.0614,0.0723,0.067,0.0654,0.0825,0.0811,0.0963,0.0962,0.0962,0.0962,0.0961,0,-0.0388,-0.0416,-0.0471,-0.055,-0.0565,-0.0596,-0.0678,-0.0697,-0.0703,-0.0682,-0.0573,-0.0445,-0.0211,-0.0085,0.0276,0.0223,0.0415,0.0545,0.0554,0.0387,0.0345,0.0546,0.061,0.0607,0.0604,0.0601,0.0598,0,-0.0359,-0.04,-0.041,-0.0461,-0.0486,-0.0482,-0.0518,-0.0535,-0.053,-0.0527,-0.0397,-0.0332,-0.0185,-0.0093,0.0059,0.0243,0.0366,0.0254,0.0516,0.0522,0.0342,0.0362,0.0403,0.0557,0.0562,0.0566,0.0569,0,-0.033,-0.0363,-0.0361,-0.0394,-0.0381,-0.039,-0.0408,-0.043,-0.0475,-0.0372,-0.038,-0.0246,-0.0151,-0.0108,-0.0009,0.0124,0.0298,0.0234,0.0241,0.0307,0.0557,0.0338,0.0341,0.038,0.0384,0.0388,0.054,0,-0.0306,-0.0332,-0.0336,-0.0355,-0.0352,-0.035,-0.0337,-0.0331,-0.0305,-0.0294,-0.025,-0.0144,-0.0076,-0.0054,0.0016,0.0125,0.0154,0.0176,0.0226,0.0244,0.0298,0.0321,0.0067,0.0067,0.0068,0.0068,0,0,-0.0269,-0.031,-0.0299,-0.0305,-0.0308,-0.0267,-0.0284,-0.0261,-0.0216,-0.0229,-0.0176,-0.0092,-0.0032,0.0005,0.0032,0.0036,0.012,0.0101,0.0204,0.0218,0.0232,0.0287,0.0307,0.0069,0.0069,0.0069,0.0069,0,-0.0262,-0.0281,-0.0305,-0.0291,-0.0271,-0.0256,-0.0252,-0.0216,-0.0201,-0.0173,-0.0138,-0.0086,-0.002,0.0018,0.0045,0.004,0.0145,0.0057,0.0084,0.0203,0.0216,0.0229,0.0285,0.0303,0.0071,0.0071,0.0071,0,-0.0242,-0.0247,-0.0266,-0.0267,-0.0249,-0.025,-0.0212,-0.019,-0.0192,-0.0123,-0.0104,-0.0056,-0.0006,0.0032,0.0054,0.0073,0.018,0.0119,0.0116,0.0147,0.0273,0.0287,0.0299,0.0154,0.0154,0.0155,0,0,-0.0229,-0.0255,-0.0245,-0.0265,-0.0259,-0.0224,-0.0207,-0.0186,-0.0152,-0.0135,-0.0086,-0.0044,-0.0009,0.0028,0.0061,0.0109,0.0176,0.0128,0.0125,0.0121,0.015,0.0274,0.0286,0.0155,0.0155,0.0156,0,0,-0.0214,-0.023,-0.0237,-0.0264,-0.024,-0.0201,-0.0188,-0.0166,-0.0128,-0.0125,-0.0067,-0.005,-0.0013,0.0025,0.0028,0.0088,0.0103,0.0104,0.0078,0.0074,0.007,0.0095,0.0083,0,0,0,0,0,-0.0212,-0.0233,-0.0241,-0.0245,-0.0239,-0.0209,-0.02,-0.0167,-0.0156,-0.0143,-0.0109,-0.0062,0.0027,0.0031,0.0049,0.0072,0.0167,0.0165,0.0163,0.0139,0.0133,0.0129,0,0,0,0,0,0,-0.0213,-0.0221,-0.0239,-0.0211,-0.0208,-0.0209,-0.0191,-0.0182,-0.0156,-0.0152,-0.0074,-0.006,-0.002,0.0027,0.0042,0.0062,0.0078,0.0166,0.0165,0.0163,0.0137,0.0133,0.0129,0,0,0,0,0,-0.0214,-0.0219,-0.0234,-0.0208,-0.0206,-0.0165,-0.0191,-0.0183,-0.0157,-0.0094,-0.008,-0.0133,-0.0022,-0.0005,0.0037,0.0054,0.0068,0.0073,0.0165,0.0164,0.0163,0.0135,0,0,0,0,0,0,-0.0214,-0.0194,-0.0231,-0.0226,-0.0208,-0.0162,-0.016,-0.0184,-0.0099,-0.0087,-0.0151,-0.0148,-0.0022,-0.0009,0.0004,0.0048,0.006,0.0065,0.0068,0.0164,0.0163,0.0162,0,0,0,0,0,0,-0.0191,-0.0192,-0.0229,-0.0232,-0.0227,-0.016,-0.0158,-0.0104,-0.0097,-0.0159,-0.0155,-0.015,-0.003,-0.0012,-0.0002,0.0082,0.0053,0.0059,0.0062,0.0065,0.0163,0.0162,0,0,0,0,0,0,-0.0189,-0.019,-0.0232,-0.0229,-0.0224,-0.0168,-0.0107,-0.0096,-0.0128,-0.0161,-0.0128,-0.0127,-0.0033,-0.0023,-0.0006,0.0073,0.008,0.0054,0.0057,0.006,0.0061,0,0,0,0,0,0,0,-0.0188,-0.0209,-0.0262,-0.0226,-0.0222,-0.0184,-0.0183,-0.0181,-0.0128,-0.0128,-0.0128,-0.0127,0.0023,0.0029,0.0035,0.0066,0,0,0.0053,0.0056,0,0,0,0,0,0,0,0,-0.0206,-0.0208,-0.0262,-0.0261,-0.026,-0.0184,-0.0183,-0.0181,-0.0128,-0.0128,-0.0128,-0.0127,0.0025,0.003,0.0034,0,0,0,0,0,0,0,0,0,0,0,0,0,0,0,-0.0262,-0.0261,0,-0.0184,-0.0183,-0.0182,-0.0128,-0.0128,-0.0128,-0.0128,0.0026,0.003,0.0034,0,0,0,0,0,0,0,0,0,0,0,0,0,0,0,0,0,0,0,0,0,0,0,0,0,0,0,0,0,0,0,0,0,0,0,0,0,0,0,0,0,0,0,0,0,0,0,0,0,0,0,0,0,0,0,0,0,0,0,0,0,0,0,0,0,0,0,0,0]}]]]